Location: Tuttlingen
(47.9853°N, 8.8165°E)
Time: 14:09:44
(UTC+01:00)

ISS - Pass Details

Date: 15 November 2017
Orbit: 402 x 407 km, 51.6° (Epoch: 23 November)

Event Time Altitude Azimuth Distance (km) Brightness Sun altitude
Exits shadow 06:27:52 15° 263° (W) 1,204 -2.0 -10.7°
Maximum altitude 06:29:41 23° 219° (SW) 912 -2.3 -10.4°
Drops below altitude 10° 06:32:19 10° 165° (SSE) 1,448 -0.6 -9.9°
Sets 06:34:38 0° 150° (SSE) 2,304 0.8 -9.6°
